Wind_Speed
36 35 35 34 34 35 36 37 36 36 36 36 37 37 38 38 39 40 41 42 43 44 45 46 49 51 54 56 57 60 62 64 66 68 69 70 71 72 72 73 73 73 73
34 33 33 33 34 35 35 36 36 36 37 38 38 39 40 41 42 43 44 45 46 47 49 52 54 56 58 60 62 65 66 68 71 73 75 75 75 75 76 77 77 77 77
31 31 32 33 33 34 34 35 36 37 39 40 41 42 43 45 46 47 48 49 50 52 55 56 59 61 62 64 67 68 70 71 72 75 77 78 78 76 75 76 76 75 74
30 32 34 33 33 33 34 35 37 38 40 42 44 45 47 48 49 51 52 54 56 58 59 61 63 64 66 68 69 70 70 70 71 71 72 72 70 68 65 63 63 62 61
33 35 35 35 34 35 35 36 39 41 44 46 47 48 50 51 53 55 56 59 61 63 64 65 66 67 68 68 68 67 66 65 64 62 61 59 57 55 53 50 47 47 47
37 38 38 38 38 38 38 38 41 44 46 48 50 51 53 54 56 58 60 62 64 65 66 66 66 66 65 64 62 60 59 57 56 54 53 51 49 47 46 45 42 41 41
41 42 41 42 42 41 40 40 43 46 48 50 52 53 55 56 58 60 62 63 65 65 65 64 62 59 57 55 54 53 52 51 50 50 49 48 46 45 44 43 41 40 39
42 44 45 45 43 41 41 42 44 46 49 51 52 54 56 58 60 61 62 63 63 62 59 55 51 49 48 48 47 47 47 48 48 49 49 47 45 45 44 42 40 39 37
38 41 44 43 41 41 42 43 44 48 50 52 53 55 57 59 60 61 63 61 58 54 49 45 43 42 42 43 44 45 47 48 49 49 49 47 45 44 43 41 40 38 35
33 34 37 39 40 40 41 43 45 49 52 53 56 58 60 60 60 61 59 54 50 45 42 40 40 40 41 43 45 47 48 49 49 49 48 47 47 45 43 41 39 37 34
37 37 38 40 40 40 41 43 47 51 53 56 59 61 61 60 60 58 52 47 44 40 38 38 39 41 44 46 48 49 50 51 50 49 48 46 45 43 40 39 37 35 33
40 39 38 39 39 40 41 45 50 53 56 59 61 61 59 59 58 52 47 42 39 37 37 39 42 45 48 50 51 52 52 51 50 48 46 45 43 40 38 36 34 32 30
43 41 39 38 39 40 43 48 52 55 58 61 61 60 59 58 53 46 41 38 37 38 39 42 45 49 51 53 53 53 52 51 48 46 43 42 40 38 35 33 31 29 27
44 42 39 37 38 42 46 50 54 58 60 61 60 58 57 54 46 41 39 38 38 40 43 47 50 53 54 54 53 52 50 48 46 43 41 39 37 34 32 30 28 26 24
42 39 36 36 39 43 48 53 56 59 60 60 57 57 54 47 41 39 38 39 41 44 48 51 53 54 54 53 51 49 47 45 42 40 38 36 33 30 28 26 25 22 20
36 33 33 36 41 46 51 55 58 59 58 57 55 54 48 42 39 38 39 42 46 49 52 54 54 54 53 52 49 47 44 41 39 37 35 32 29 26 24 22 20 19 17
35 33 34 38 44 49 53 55 56 56 56 54 53 48 42 39 38 39 42 46 49 52 53 53 53 53 52 49 46 44 41 38 36 33 30 27 24 21 19 18 16 15 14
34 35 39 42 45 49 51 52 53 53 52 51 47 42 38 37 39 42 46 49 51 52 52 53 52 51 49 47 43 41 38 35 33 30 26 23 20 17 15 14 13 11 10
35 37 39 42 45 47 48 49 50 50 48 46 41 37 36 38 41 45 47 49 51 51 51 51 50 48 46 43 40 37 34 32 30 26 23 19 16 13 11 11 10 9 7
34 36 39 41 43 45 45 46 46 46 44 40 36 35 37 40 43 45 47 48 49 49 49 48 47 44 42 39 36 33 31 29 26 23 19 16 12 9 9 9 9 8 8
33 35 38 40 41 41 41 42 43 41 37 33 33 35 38 41 43 44 45 46 47 47 47 46 44 41 38 35 33 30 27 25 22 19 16 12 7 7 8 10 11 11 11
30 33 35 36 37 38 39 39 37 34 31 31 33 36 39 40 42 43 43 44 44 45 45 43 41 39 36 33 30 27 24 21 18 14 10 7 4 8 11 12 13 14 14
29 31 32 33 33 35 35 33 30 28 29 31 34 37 38 39 40 41 42 42 43 43 43 41 38 36 33 30 27 24 21 17 13 9 5 2 6 11 14 15 16 17 17
26 28 29 29 31 31 29 26 25 26 29 32 35 36 37 38 38 39 40 41 42 41 40 37 34 32 30 27 24 21 17 13 8 4 1 4 10 14 16 18 19 19 18
24 25 26 27 27 25 22 21 23 26 30 32 34 36 36 36 37 37 38 39 40 39 37 34 31 30 27 24 21 17 13 8 4 1 4 8 13 16 18 20 20 20 19
21 22 23 23 20 18 17 20 23 27 30 32 34 35 35 36 36 36 37 38 38 37 35 33 31 28 25 21 17 13 8 5 4 5 7 11 15 17 20 21 21 20 19
Wind_Direction
302 306 311 314 316 316 315 316 317 316 315 313 312 311 311 312 311 310 308 306 303 301 298 296 295 294 293 292 291 291 290 289 288 287 286 284 284 284 283 282 281 280 280
294 298 303 307 310 312 314 316 316 315 314 313 313 313 313 312 311 310 308 305 302 299 297 296 295 294 294 292 292 291 291 290 289 289 288 287 284 283 283 282 281 280 279
289 293 298 301 304 309 313 315 315 315 315 316 316 315 314 313 311 308 306 303 300 298 296 296 295 295 294 293 293 293 292 292 291 291 291 290 288 285 282 281 280 278 277
287 291 295 295 299 306 311 314 316 317 318 318 317 315 314 312 310 307 305 303 301 300 298 298 297 297 297 296 296 295 294 293 293 293 292 292 292 290 287 283 280 278 277
287 288 289 289 294 301 308 313 316 318 318 318 316 315 313 311 309 307 305 304 303 302 301 300 300 299 299 298 298 298 297 296 296 296 296 296 295 294 292 289 285 281 278
284 285 284 285 288 295 302 309 313 316 317 317 315 314 312 311 309 308 306 305 304 303 302 301 300 299 299 299 299 299 299 299 298 298 299 299 298 296 294 292 289 284 281
278 280 280 280 284 290 296 303 308 313 315 315 314 313 312 310 309 308 306 305 303 302 301 300 299 299 300 300 301 301 301 300 300 299 299 299 297 296 295 293 290 286 283
276 276 278 278 282 287 292 298 305 311 313 314 313 312 311 309 308 307 306 305 304 303 302 302 301 302 303 304 304 304 304 302 301 300 299 297 295 295 295 293 291 289 285
281 279 280 280 283 288 292 298 305 310 312 312 312 311 310 310 309 308 308 307 306 305 304 305 306 307 308 308 308 308 308 306 304 301 299 295 293 293 293 292 292 292 289
285 284 283 283 283 289 295 300 306 309 311 312 312 312 311 311 310 310 310 309 309 307 307 308 310 311 311 312 312 311 311 308 305 302 298 294 291 290 289 289 290 292 290
285 286 288 283 284 290 297 303 307 310 311 312 313 312 312 312 312 312 310 310 310 309 309 311 312 313 313 313 313 312 311 309 306 302 298 295 291 287 285 286 286 288 289
284 287 286 284 287 293 300 305 309 311 312 313 313 313 312 312 312 311 309 309 309 310 312 313 314 314 314 314 313 312 311 309 306 302 298 295 292 287 282 282 282 283 285
282 283 283 285 289 296 303 308 311 312 313 313 313 313 312 313 311 308 308 308 309 311 313 314 314 314 314 314 312 311 310 308 305 302 299 296 291 286 281 279 278 279 279
278 278 280 284 291 301 307 311 312 313 313 313 312 312 312 312 309 306 306 308 309 311 313 314 315 315 314 313 312 311 309 307 305 303 300 297 292 285 280 276 274 273 274
272 274 280 289 299 305 309 311 312 312 312 312 312 312 312 310 306 305 306 308 310 312 314 315 316 315 315 313 312 310 308 306 305 304 302 299 293 285 278 272 269 267 268
273 277 284 296 304 307 309 310 310 311 311 312 311 312 310 307 305 306 308 310 312 314 315 316 316 316 315 314 312 310 307 306 305 305 303 301 294 285 276 269 262 260 260
279 288 297 305 308 308 309 309 310 310 311 311 311 310 307 305 306 308 310 313 315 316 317 317 317 317 316 315 313 311 308 307 306 306 304 301 294 284 273 265 257 250 249
287 296 304 308 307 307 308 309 310 311 310 310 310 308 306 306 309 311 313 315 317 318 319 319 319 318 318 317 315 313 309 307 308 307 305 300 293 282 266 255 246 239 239
289 300 305 305 305 306 308 310 310 310 309 309 308 306 307 310 312 314 316 319 320 321 321 320 320 320 319 318 317 314 311 309 308 307 306 299 290 276 254 238 227 219 216
294 301 302 302 304 306 308 309 308 308 309 308 306 308 310 313 316 318 320 322 323 323 322 322 322 322 321 320 319 317 314 311 309 307 305 301 287 261 229 211 199 191 183
294 298 299 301 304 306 307 307 307 308 307 306 308 311 314 317 320 322 324 325 325 325 325 324 324 324 323 323 322 321 319 316 312 307 304 301 276 222 193 184 174 166 161
293 295 298 301 304 305 306 307 307 307 306 308 312 316 319 322 325 327 328 328 328 328 328 328 328 327 326 326 325 324 322 320 316 310 304 295 229 178 167 163 159 154 150
291 295 299 301 303 304 306 307 306 306 309 313 317 321 324 327 330 331 332 332 332 332 332 331 330 329 329 328 328 328 326 324 321 314 301 257 172 157 153 152 151 149 144
291 296 299 301 303 306 307 306 306 309 313 317 322 326 330 333 335 336 336 336 336 335 335 334 334 334 333 332 332 332 331 329 329 325 270 162 153 150 150 150 149 148 145
292 296 299 303 306 307 306 307 310 314 319 323 328 332 336 339 339 339 339 339 339 339 339 339 338 338 337 336 335 336 338 340 349 58 136 145 147 147 149 151 151 149 145
292 297 302 306 307 306 307 311 316 321 325 330 335 338 341 342 342 342 342 343 344 345 346 345 344 343 341 342 345 350 0 23 62 106 130 140 143 145 149 151 153 150 147
Height
5858 5856 5855 5854 5851 5850 5847 5845 5842 5839 5836 5832 5829 5825 5821 5817 5814 5810 5805 5801 5797 5793 5788 5784 5780 5775 5770 5766 5761 5757 5752 5747 5741 5737 5734 5731 5727 5722 5717 5712 5709 5705 5701
5856 5855 5853 5850 5848 5846 5843 5839 5835 5832 5829 5825 5821 5817 5813 5809 5805 5800 5796 5791 5787 5782 5778 5773 5768 5763 5758 5752 5746 5741 5736 5730 5723 5717 5711 5709 5709 5703 5697 5691 5686 5682 5679
5853 5852 5850 5847 5844 5841 5837 5833 5829 5825 5821 5817 5812 5808 5804 5800 5795 5791 5786 5782 5776 5771 5766 5761 5755 5749 5743 5736 5730 5724 5718 5712 5705 5696 5689 5683 5681 5679 5677 5669 5663 5659 5656
5849 5847 5845 5842 5839 5835 5831 5827 5822 5818 5813 5809 5804 5800 5796 5791 5786 5781 5775 5769 5763 5757 5751 5745 5739 5732 5725 5718 5711 5705 5698 5692 5686 5679 5670 5662 5656 5651 5649 5646 5641 5637 5635
5842 5841 5839 5836 5833 5829 5824 5820 5815 5810 5805 5801 5796 5791 5787 5781 5776 5770 5763 5757 5749 5742 5735 5729 5722 5715 5708 5700 5693 5687 5680 5673 5667 5660 5653 5646 5639 5633 5628 5626 5624 5621 5619
5835 5834 5832 5829 5825 5822 5817 5812 5807 5802 5798 5793 5788 5783 5777 5771 5765 5758 5751 5744 5736 5728 5720 5713 5706 5699 5692 5685 5678 5671 5665 5658 5652 5646 5639 5633 5627 5622 5616 5613 5610 5609 5607
5828 5827 5824 5821 5818 5815 5811 5806 5801 5796 5791 5786 5780 5774 5768 5761 5754 5747 5739 5732 5723 5715 5707 5699 5692 5685 5678 5671 5665 5659 5652 5646 5640 5634 5628 5622 5616 5611 5606 5602 5599 5597 5596
5820 5818 5815 5812 5809 5806 5803 5798 5794 5789 5784 5778 5772 5766 5759 5752 5744 5736 5728 5719 5710 5702 5694 5686 5679 5673 5666 5660 5654 5647 5641 5635 5629 5623 5617 5611 5606 5601 5596 5592 5588 5586 5585
5811 5809 5806 5803 5801 5798 5795 5791 5786 5781 5776 5770 5764 5757 5749 5741 5733 5724 5715 5706 5697 5689 5681 5675 5668 5662 5656 5650 5643 5637 5631 5624 5617 5611 5605 5600 5595 5590 5586 5581 5577 5575 5574
5803 5801 5799 5796 5793 5790 5786 5782 5778 5773 5768 5761 5754 5746 5738 5729 5720 5711 5702 5693 5685 5678 5671 5665 5659 5653 5647 5640 5633 5627 5620 5612 5606 5599 5594 5588 5583 5579 5575 5571 5568 5564 5562
5796 5794 5791 5788 5785 5782 5778 5774 5769 5765 5758 5751 5742 5734 5726 5717 5708 5699 5691 5683 5676 5669 5663 5657 5651 5644 5637 5630 5623 5616 5608 5600 5593 5586 5581 5575 5571 5567 5564 5561 5558 5555 5553
5788 5786 5784 5780 5777 5773 5769 5765 5760 5755 5747 5739 5731 5723 5714 5706 5697 5689 5682 5675 5668 5661 5655 5649 5642 5635 5628 5620 5612 5604 5595 5588 5580 5573 5567 5562 5558 5554 5552 5550 5548 5546 5545
5780 5778 5775 5771 5767 5764 5760 5756 5750 5743 5736 5728 5720 5712 5703 5695 5687 5680 5673 5667 5660 5654 5647 5640 5633 5625 5617 5608 5599 5591 5582 5574 5567 5561 5555 5550 5546 5542 5541 5540 5539 5538 5537
5771 5768 5765 5762 5758 5754 5750 5745 5739 5732 5725 5717 5709 5701 5694 5686 5678 5671 5665 5659 5652 5646 5638 5631 5623 5614 5604 5595 5586 5578 5569 5561 5554 5548 5543 5538 5534 5531 5530 5530 5529 5530 5530
5759 5757 5754 5751 5748 5744 5740 5734 5728 5721 5714 5707 5699 5691 5684 5676 5669 5663 5657 5651 5644 5636 5629 5620 5611 5601 5592 5583 5574 5565 5557 5549 5543 5537 5532 5527 5524 5521 5520 5521 5521 5522 5523
5748 5745 5743 5741 5738 5734 5729 5724 5717 5711 5704 5696 5689 5681 5674 5667 5661 5655 5649 5642 5634 5626 5617 5608 5598 5588 5579 5570 5561 5553 5545 5539 5533 5528 5522 5518 5514 5513 5512 5512 5514 5515 5516
5739 5736 5733 5731 5729 5725 5719 5713 5707 5700 5694 5687 5679 5672 5665 5659 5653 5647 5640 5632 5624 5615 5605 5596 5586 5577 5567 5558 5550 5541 5534 5529 5524 5519 5514 5510 5507 5505 5505 5506 5508 5509 5511
5730 5728 5726 5723 5719 5715 5709 5703 5697 5691 5685 5678 5671 5664 5658 5652 5646 5639 5631 5622 5613 5603 5594 5584 5574 5565 5556 5547 5539 5531 5524 5519 5515 5510 5507 5503 5501 5499 5500 5501 5503 5505 5506
5722 5720 5717 5714 5710 5706 5700 5694 5689 5683 5677 5670 5664 5657 5652 5645 5638 5631 5622 5612 5602 5592 5583 5573 5564 5554 5545 5537 5530 5523 5516 5511 5507 5503 5500 5497 5495 5495 5495 5497 5499 5501 5503
5714 5712 5709 5706 5702 5697 5692 5687 5682 5676 5670 5663 5657 5652 5646 5639 5631 5622 5612 5602 5592 5583 5573 5563 5554 5545 5537 5529 5522 5515 5509 5504 5500 5496 5494 5492 5491 5491 5492 5494 5496 5499 5501
5706 5704 5702 5698 5694 5689 5685 5680 5675 5669 5663 5657 5652 5646 5639 5631 5622 5613 5603 5593 5584 5574 5564 5555 5545 5537 5529 5521 5515 5508 5502 5497 5494 5491 5489 5488 5487 5488 5489 5492 5495 5498 5501
5699 5698 5695 5691 5687 5683 5678 5673 5668 5663 5658 5653 5647 5640 5633 5624 5614 5605 5595 5586 5576 5566 5556 5546 5537 5529 5521 5515 5508 5502 5497 5493 5489 5487 5485 5485 5485 5486 5488 5491 5494 5498 5501
5693 5691 5687 5684 5681 5677 5672 5667 5662 5658 5653 5648 5641 5634 5625 5616 5607 5598 5588 5579 5569 5559 5549 5540 5531 5523 5515 5509 5503 5498 5493 5489 5486 5484 5483 5483 5484 5486 5489 5492 5495 5499 5502
5686 5684 5681 5678 5675 5670 5666 5662 5658 5654 5649 5643 5636 5627 5619 5610 5601 5592 5582 5573 5563 5554 5544 5535 5526 5518 5511 5504 5499 5494 5490 5487 5484 5483 5483 5483 5484 5487 5490 5493 5497 5500 5504
5680 5678 5676 5673 5669 5665 5661 5659 5655 5650 5645 5638 5630 5622 5613 5605 5596 5587 5578 5569 5559 5549 5540 5531 5522 5514 5507 5501 5496 5491 5488 5485 5483 5483 5483 5484 5486 5488 5492 5495 5499 5503 5506
5676 5673 5670 5667 5664 5661 5659 5656 5652 5647 5640 5632 5624 5616 5608 5600 5592 5583 5574 5565 5556 5546 5536 5527 5518 5511 5504 5499 5494 5490 5487 5485 5484 5484 5484 5486 5488 5490 5494 5497 5502 5505 5509